Wind_Speed
26 27 29 30 29 27 24 19 19 13 15 17 13 13 13 13 11 9 10 9 6 7 7 8 8 8 7 7 6 6 5 5 4 4 3 1 1 1 2 2 3 4 5 6 7 8 9 10 11
28 29 31 33 32 28 25 20 20 17 17 13 13 15 14 12 12 12 11 11 10 8 8 8 8 7 7 6 5 4 3 4 2 1 0 1 1 1 2 2 5 7 8 10 12 14 17 18 20
31 31 32 35 35 30 27 23 22 21 17 15 16 14 13 13 11 12 11 13 12 11 10 9 8 7 7 7 6 5 4 4 5 5 6 6 5 5 6 8 8 10 13 15 17 18 19 19 17
33 34 34 35 35 34 31 27 25 24 17 19 18 15 15 13 11 11 10 13 15 13 12 12 11 9 8 7 7 5 5 3 4 6 7 8 9 11 13 14 16 15 14 14 13 13 15 16 16
36 36 37 36 33 34 35 32 28 27 23 20 19 17 19 15 14 13 11 12 15 15 13 11 10 9 7 6 6 5 4 3 3 4 3 2 2 3 4 5 6 9 12 14 13 12 13 14 15
39 39 38 35 32 35 38 35 31 30 24 23 20 19 21 20 17 15 13 13 14 14 13 12 11 9 8 7 6 6 5 4 3 4 4 4 4 4 4 5 7 9 11 11 11 12 11 12 13
47 43 40 36 34 37 37 38 33 35 32 27 26 23 24 24 20 18 16 15 15 15 14 13 12 11 9 8 7 6 6 6 6 5 4 3 4 6 7 8 9 9 10 11 11 12 12 13 14
38 37 51 40 37 37 37 37 36 37 34 29 27 24 27 28 23 21 20 18 16 16 16 15 14 13 11 10 9 7 6 5 6 6 5 5 5 6 7 8 10 11 12 13 14 15 15 15 16
41 39 35 48 39 37 38 36 37 35 32 28 26 23 27 27 24 23 23 20 18 18 18 17 16 14 12 10 10 8 7 7 6 6 6 6 7 8 9 11 12 13 14 15 15 16 17 18 19
44 44 38 42 52 43 41 38 39 37 32 28 25 25 27 27 24 24 25 24 22 21 20 20 18 17 15 13 12 10 8 8 7 7 7 6 7 8 10 11 12 13 13 14 15 17 19 20 21
45 44 42 44 52 51 45 43 41 39 37 28 27 27 27 27 27 26 25 25 25 23 22 22 21 19 18 17 15 13 12 10 9 9 8 7 8 8 9 10 13 14 16 17 20 22 23 24 26
48 48 45 46 51 51 48 44 42 42 38 40 38 27 26 27 29 29 28 28 27 26 25 23 22 22 21 20 18 15 14 13 12 12 11 11 12 13 14 15 17 19 20 21 23 24 26 28 29
52 53 47 47 51 55 59 52 47 43 43 45 43 35 31 27 30 30 29 29 29 27 26 25 24 24 24 22 20 17 17 16 15 15 15 15 16 17 17 18 20 21 22 24 25 27 29 30 32
56 59 55 51 53 54 57 62 58 49 47 47 44 42 35 32 32 32 29 30 30 28 28 27 26 25 26 24 22 20 18 18 19 20 19 19 20 20 21 22 23 25 25 27 28 29 32 34 36
60 63 63 59 58 57 56 58 64 54 50 49 48 46 42 36 31 30 33 32 32 32 31 30 29 27 26 26 23 21 21 21 22 22 22 22 23 24 25 25 27 28 29 31 32 33 35 38 41
64 67 66 58 61 61 62 59 56 58 57 54 49 47 46 40 38 32 31 34 32 32 33 32 31 28 27 26 24 24 24 23 24 24 25 26 26 27 28 28 29 30 32 33 34 36 38 42 45
67 70 70 64 64 64 65 64 58 55 56 54 52 49 49 46 40 35 33 34 33 34 33 33 32 31 28 27 27 27 26 26 26 27 28 29 29 30 31 31 32 34 36 37 38 39 41 46 49
73 74 69 64 61 64 65 65 55 55 54 53 51 50 49 46 40 37 36 36 35 33 33 33 33 30 29 29 29 28 28 28 28 29 29 30 32 33 34 35 36 38 39 41 42 45 46 52 50
74 73 68 59 63 64 67 66 58 55 59 55 51 52 52 52 48 45 41 38 36 33 31 32 33 31 32 32 32 32 31 31 30 31 31 32 33 35 36 38 39 41 42 47 50 51 55 55 49
69 81 76 70 48 63 67 66 60 61 61 57 59 53 51 50 47 43 40 36 35 33 32 33 33 34 35 35 34 33 33 33 33 34 35 35 36 38 39 41 43 45 50 54 55 54 50 50 47
49 68 74 76 59 56 69 69 67 70 68 60 57 59 58 49 43 42 39 37 38 38 36 35 36 36 36 36 36 36 37 37 38 37 38 38 38 39 40 42 51 53 54 48 52 50 52 50 51
69 60 72 79 54 64 58 66 66 62 67 61 57 53 53 53 50 47 45 42 38 38 39 38 39 39 39 38 39 39 40 40 41 41 39 40 41 41 42 49 49 49 45 49 52 50 51 54 51
51 59 61 83 62 54 58 65 69 64 60 61 56 57 54 50 50 47 46 39 38 41 41 40 41 41 41 42 42 42 43 43 42 42 43 43 43 49 48 51 49 48 46 46 52 48 50 51 53
49 43 50 63 79 59 57 46 60 72 64 61 60 56 53 53 53 51 42 41 39 39 38 38 37 37 42 43 44 44 43 45 43 46 45 42 46 43 47 45 47 50 45 48 50 46 48 49 53
41 45 48 52 56 36 46 50 68 56 65 56 54 50 51 46 53 49 42 43 44 42 39 37 35 35 29 42 40 40 35 37 35 40 46 45 44 50 45 44 47 46 46 48 48 50 51 55 57
49 50 51 46 43 32 36 49 49 58 57 67 52 45 55 51 51 51 49 45 41 42 45 43 43 43 41 35 38 36 49 45 37 47 43 50 43 39 43 48 45 46 48 49 53 56 58 60 58
34 41 48 53 34 24 30 45 41 49 49 52 57 56 50 48 47 53 52 47 51 47 46 48 43 49 47 42 36 44 36 43 44 48 50 43 41 43 45 49 48 50 52 55 59 61 61 57 59
18 31 41 34 31 19 30 38 42 47 41 50 46 49 52 47 42 40 49 48 51 50 52 42 49 51 50 43 52 42 45 49 51 47 48 44 46 46 45 49 52 55 57 58 57 56 58 62 65
14 34 34 22 21 8 17 28 36 45 42 40 43 44 46 51 52 53 51 53 46 45 47 54 46 42 38 39 43 47 46 40 39 36 33 42 44 47 50 54 56 58 57 54 57 61 64 66 68
24 20 48 37 18 3 17 30 41 38 36 35 37 43 42 38 39 43 44 46 49 44 43 44 42 43 44 46 43 40 36 33 31 34 40 45 47 51 54 55 53 52 55 59 62 64 66 65 62
Wind_Direction
221 225 228 232 231 226 230 224 229 220 217 213 200 200 197 189 177 185 173 165 149 147 141 149 150 152 156 156 157 152 147 121 117 100 86 91 70 62 57 39 18 13 1 347 336 328 324 321 325
225 227 229 235 233 229 232 228 231 223 228 222 214 199 204 194 180 185 187 186 176 181 164 164 161 168 174 179 181 185 168 159 159 186 194 206 256 298 307 323 316 312 310 309 308 307 305 305 306
231 228 231 235 236 236 232 228 233 235 222 218 222 216 215 202 194 195 194 196 201 194 191 198 195 203 212 219 224 229 229 208 237 247 253 260 265 274 283 286 291 294 297 299 299 299 300 302 304
228 232 236 237 239 239 236 230 232 231 236 232 221 223 229 216 202 206 202 206 211 210 205 213 217 220 225 233 241 239 217 231 257 256 253 260 266 268 272 276 280 290 295 298 302 302 300 299 299
225 229 239 239 239 241 244 239 233 236 229 228 226 224 234 227 215 215 207 208 221 213 212 215 213 210 213 219 216 219 219 224 233 215 214 223 254 262 278 294 302 301 299 300 304 309 310 300 297
229 231 237 239 240 241 245 242 239 235 235 229 230 236 237 236 228 223 221 213 218 218 210 207 206 202 197 203 206 209 217 228 226 217 224 238 253 273 289 295 297 301 306 313 320 319 317 313 311
229 232 243 238 238 241 245 246 243 238 236 237 237 239 236 236 232 228 224 221 216 220 210 207 207 204 202 205 208 211 206 206 218 230 244 266 294 302 304 305 306 305 309 315 319 322 327 324 320
230 241 239 241 239 241 242 246 245 244 239 232 236 236 234 233 232 230 227 223 220 218 220 215 215 215 214 214 221 225 227 226 218 223 236 257 274 293 302 307 307 306 308 311 315 317 319 318 317
234 237 240 239 239 244 242 243 246 247 241 232 227 240 235 237 233 229 227 225 220 218 221 226 225 228 227 232 237 239 238 234 237 253 270 287 297 300 299 298 298 301 306 309 314 314 313 314 315
242 241 238 234 235 235 240 237 241 243 236 225 231 236 234 233 229 225 226 223 224 219 220 224 228 231 236 240 246 247 246 245 245 256 270 288 298 304 309 313 317 322 323 324 326 327 325 326 325
245 247 242 234 234 235 234 234 238 240 235 230 229 225 231 233 230 225 227 232 228 226 225 225 230 236 238 242 245 247 247 245 245 256 267 278 287 292 300 312 317 320 325 326 328 327 325 320 318
246 246 244 239 233 229 233 234 237 239 233 229 232 230 234 235 233 227 226 232 230 230 227 230 230 235 240 243 246 248 251 251 253 258 265 271 280 292 305 312 315 316 316 321 321 317 314 313 310
251 247 243 242 238 232 234 236 235 235 235 231 235 233 238 241 241 233 230 233 236 234 231 229 231 234 238 242 244 247 250 252 255 259 262 269 280 290 296 301 304 306 310 312 312 311 310 308 307
250 247 240 241 240 237 232 234 234 231 232 232 232 233 238 241 246 240 235 232 233 234 236 235 235 236 235 238 240 244 249 254 256 259 264 271 279 286 293 298 299 301 304 305 306 306 304 302 302
248 246 240 237 240 238 237 233 233 232 233 233 229 231 234 238 243 242 240 235 233 232 232 232 236 238 237 238 239 244 246 250 255 261 267 273 279 285 288 293 296 300 303 304 306 304 302 301 299
248 244 243 237 237 237 238 235 236 232 232 233 229 230 233 235 236 240 240 241 238 239 235 234 237 240 243 246 247 246 247 249 254 260 265 270 274 280 284 289 293 296 298 300 300 301 300 298 296
251 251 248 235 232 237 238 239 236 236 228 229 229 228 231 234 237 239 239 239 237 235 238 237 240 242 244 248 250 249 249 251 256 261 267 273 277 281 285 288 292 293 295 295 296 294 293 297 296
247 241 239 236 230 235 236 236 231 234 228 226 229 228 231 229 234 241 238 235 238 237 238 243 245 247 248 248 251 252 253 255 258 263 269 276 281 284 287 288 290 292 294 296 297 296 293 298 297
238 234 230 227 233 229 236 236 234 237 228 226 229 230 232 236 241 242 240 237 237 239 241 243 247 247 249 248 249 252 255 260 264 269 272 275 278 281 285 287 290 293 295 296 295 293 295 295 294
235 228 224 214 235 231 232 233 234 225 230 234 231 232 234 234 237 240 237 238 237 236 237 241 244 245 246 248 249 252 257 261 265 268 272 276 279 283 287 290 293 293 293 291 293 291 299 292 297
229 229 223 217 232 237 228 228 227 226 233 225 232 231 231 230 232 235 234 233 235 234 233 237 242 245 248 250 253 256 258 263 267 271 273 275 280 284 286 288 293 292 290 289 295 287 293 296 292
217 222 219 214 224 222 223 231 229 231 232 232 229 225 229 228 226 231 234 233 233 237 238 239 244 248 253 255 258 261 263 265 267 270 275 279 280 283 282 289 291 288 294 291 295 295 296 296 297
214 215 222 216 221 209 204 225 231 223 218 227 217 229 225 226 225 231 229 232 235 238 239 243 246 249 254 258 259 259 262 266 270 275 277 279 280 283 286 289 290 290 294 291 295 299 296 297 300
217 223 233 226 230 232 206 220 222 223 225 225 227 229 227 227 231 232 225 226 231 240 239 242 247 258 260 259 258 264 271 276 277 277 274 278 291 273 293 296 290 289 292 293 296 296 299 300 300
231 214 225 235 229 250 228 218 221 219 223 224 231 228 222 229 233 233 235 243 237 234 239 242 247 259 239 260 258 275 263 263 272 271 280 281 286 276 285 292 295 296 293 294 298 301 302 302 303
230 220 221 227 227 241 236 226 216 221 225 222 223 225 227 224 230 236 245 239 242 246 243 244 249 249 245 252 264 253 266 261 251 274 277 288 284 288 287 288 296 298 297 301 301 302 301 302 302
229 226 229 222 232 250 239 223 225 222 224 227 227 227 226 231 233 235 234 235 250 248 249 250 256 255 258 258 250 263 271 270 278 289 280 280 280 282 285 287 293 297 298 300 301 301 300 301 301
203 214 224 231 241 237 208 221 223 216 220 222 228 227 229 228 225 232 241 253 247 247 252 256 252 261 262 258 261 259 258 277 282 276 274 275 274 282 289 291 293 297 299 299 300 300 300 299 298
190 193 199 204 219 206 183 211 221 219 224 222 228 222 229 230 235 232 233 247 241 250 245 256 255 255 237 253 276 273 276 271 264 269 284 283 283 286 290 293 296 297 297 298 298 298 297 297 299
143 186 221 219 231 246 167 198 220 218 220 222 222 229 231 227 235 232 236 238 245 245 249 259 250 243 262 271 266 265 262 271 276 281 280 283 287 291 292 294 295 296 296 296 295 296 299 305 307
Height
5829 5830 5831 5834 5838 5838 5839 5844 5844 5847 5848 5848 5850 5851 5853 5853 5854 5859 5858 5859 5860 5860 5861 5862 5863 5864 5864 5865 5865 5865 5865 5866 5867 5868 5868 5868 5869 5869 5870 5870 5871 5871 5871 5871 5871 5870 5869 5868 5867
5826 5827 5828 5830 5834 5836 5839 5842 5843 5846 5848 5849 5851 5850 5851 5853 5853 5855 5857 5858 5859 5861 5862 5862 5863 5864 5864 5865 5866 5866 5865 5866 5867 5868 5868 5869 5869 5870 5870 5870 5870 5870 5870 5869 5869 5868 5867 5866 5865
5823 5824 5826 5826 5831 5836 5837 5840 5842 5843 5846 5849 5850 5850 5851 5852 5853 5854 5855 5857 5859 5859 5861 5862 5863 5863 5864 5865 5865 5865 5865 5866 5867 5867 5868 5868 5869 5869 5869 5869 5869 5868 5868 5868 5867 5865 5864 5863 5861
5819 5821 5822 5824 5830 5832 5835 5837 5840 5841 5843 5847 5849 5850 5851 5852 5852 5853 5855 5856 5858 5859 5859 5861 5862 5862 5863 5863 5864 5864 5865 5865 5866 5866 5867 5867 5867 5868 5868 5867 5867 5867 5866 5865 5864 5863 5862 5861 5859
5814 5816 5817 5822 5827 5830 5833 5834 5838 5840 5841 5843 5847 5849 5850 5851 5852 5852 5853 5854 5856 5857 5858 5859 5861 5861 5862 5863 5863 5863 5864 5865 5865 5865 5866 5866 5866 5866 5866 5865 5865 5864 5863 5862 5861 5860 5859 5858 5856
5809 5811 5814 5819 5824 5826 5829 5831 5835 5837 5839 5841 5844 5847 5848 5849 5851 5851 5853 5853 5855 5857 5858 5859 5860 5860 5861 5862 5862 5862 5863 5864 5864 5864 5864 5864 5865 5864 5864 5864 5864 5862 5861 5860 5859 5858 5856 5855 5854
5804 5806 5811 5816 5818 5820 5826 5828 5832 5834 5835 5838 5841 5843 5845 5847 5849 5850 5851 5851 5853 5856 5857 5858 5859 5859 5860 5861 5861 5861 5861 5862 5862 5863 5863 5863 5864 5864 5863 5863 5862 5861 5859 5858 5857 5856 5854 5853 5852
5798 5800 5806 5811 5814 5817 5821 5823 5826 5830 5833 5835 5837 5841 5841 5842 5846 5848 5849 5850 5852 5854 5856 5857 5858 5859 5860 5860 5861 5861 5861 5861 5861 5862 5862 5863 5863 5863 5862 5861 5861 5860 5858 5857 5856 5855 5853 5851 5850
5792 5794 5798 5804 5808 5815 5817 5820 5821 5827 5829 5831 5834 5838 5838 5840 5842 5845 5847 5848 5849 5851 5854 5856 5857 5858 5858 5859 5859 5860 5860 5860 5860 5861 5862 5862 5862 5862 5861 5860 5859 5858 5857 5856 5854 5853 5851 5849 5848
5786 5788 5791 5796 5801 5806 5809 5813 5815 5821 5826 5828 5832 5834 5834 5836 5839 5842 5844 5845 5846 5848 5850 5853 5855 5856 5857 5857 5858 5858 5859 5859 5859 5860 5860 5861 5861 5860 5859 5859 5857 5857 5856 5854 5852 5850 5848 5847 5844
5779 5781 5788 5790 5793 5797 5800 5806 5809 5814 5819 5827 5827 5828 5829 5832 5835 5838 5841 5842 5844 5845 5848 5850 5852 5853 5854 5855 5855 5856 5857 5857 5858 5858 5858 5858 5858 5857 5857 5856 5855 5854 5853 5852 5850 5848 5846 5844 5841
5770 5774 5781 5786 5786 5789 5793 5797 5802 5807 5817 5818 5820 5824 5826 5828 5830 5832 5836 5838 5841 5843 5845 5847 5848 5849 5850 5851 5853 5854 5855 5855 5855 5855 5856 5856 5855 5855 5855 5854 5853 5851 5850 5848 5847 5845 5842 5839 5837
5759 5767 5771 5776 5777 5780 5784 5788 5795 5800 5807 5811 5814 5819 5821 5823 5826 5828 5831 5834 5837 5839 5841 5842 5844 5845 5846 5848 5850 5851 5852 5852 5852 5852 5853 5852 5852 5852 5852 5851 5850 5848 5846 5844 5842 5840 5837 5834 5832
5749 5755 5762 5766 5770 5774 5774 5779 5784 5793 5797 5803 5808 5812 5815 5818 5821 5824 5827 5828 5831 5834 5837 5839 5841 5841 5841 5843 5845 5847 5848 5848 5848 5848 5849 5849 5849 5849 5848 5847 5846 5845 5843 5841 5839 5835 5832 5828 5825
5736 5740 5747 5756 5760 5762 5764 5768 5772 5783 5789 5795 5801 5804 5809 5812 5815 5820 5821 5822 5825 5828 5832 5834 5836 5838 5839 5839 5841 5843 5844 5844 5844 5844 5845 5845 5845 5845 5844 5842 5841 5840 5838 5837 5835 5831 5827 5823 5819
5723 5726 5732 5749 5748 5752 5755 5760 5766 5773 5780 5786 5792 5796 5803 5807 5809 5811 5815 5818 5820 5824 5825 5829 5832 5834 5835 5837 5838 5838 5839 5840 5840 5840 5840 5840 5839 5839 5838 5837 5836 5834 5832 5830 5828 5825 5821 5816 5811
5709 5710 5718 5726 5735 5739 5744 5747 5759 5764 5770 5775 5782 5788 5794 5799 5803 5806 5809 5811 5814 5817 5820 5823 5827 5829 5831 5832 5834 5834 5834 5835 5835 5835 5836 5835 5834 5833 5832 5831 5830 5828 5825 5823 5821 5818 5814 5808 5802
5690 5697 5705 5710 5728 5726 5731 5737 5750 5754 5761 5768 5773 5778 5786 5792 5796 5799 5802 5804 5808 5811 5814 5817 5820 5824 5826 5826 5827 5829 5830 5830 5830 5829 5829 5830 5829 5828 5826 5825 5823 5820 5818 5815 5812 5808 5803 5798 5793
5675 5683 5691 5704 5713 5715 5719 5727 5739 5746 5751 5756 5763 5769 5776 5783 5788 5791 5796 5799 5802 5807 5810 5811 5814 5816 5819 5819 5821 5822 5824 5825 5826 5825 5823 5823 5822 5821 5819 5817 5815 5813 5810 5806 5802 5796 5792 5788 5784
5655 5664 5677 5691 5699 5703 5709 5714 5725 5732 5739 5747 5754 5761 5768 5773 5779 5785 5789 5794 5798 5800 5802 5804 5807 5809 5811 5813 5814 5815 5816 5818 5818 5818 5817 5816 5814 5814 5812 5810 5808 5804 5800 5795 5790 5786 5782 5778 5774
5645 5651 5666 5677 5684 5691 5696 5699 5709 5719 5727 5736 5743 5749 5757 5765 5771 5777 5781 5785 5789 5793 5795 5797 5800 5803 5805 5806 5808 5809 5809 5809 5810 5810 5809 5808 5806 5805 5803 5801 5797 5792 5788 5784 5779 5775 5771 5767 5763
5633 5640 5652 5663 5673 5681 5679 5684 5694 5706 5714 5723 5731 5739 5747 5753 5761 5768 5772 5776 5780 5785 5788 5790 5793 5795 5797 5799 5800 5801 5801 5801 5801 5801 5801 5800 5797 5795 5792 5790 5786 5781 5777 5773 5769 5765 5761 5757 5753
5623 5636 5644 5650 5655 5661 5668 5671 5681 5694 5699 5711 5721 5732 5740 5746 5752 5758 5763 5769 5772 5777 5780 5783 5785 5789 5791 5791 5792 5792 5792 5793 5794 5794 5793 5790 5787 5785 5782 5779 5775 5771 5767 5763 5759 5755 5751 5747 5742
5620 5626 5636 5641 5639 5645 5660 5661 5665 5678 5694 5701 5712 5722 5731 5738 5744 5751 5754 5759 5764 5769 5773 5776 5779 5783 5783 5783 5784 5786 5785 5786 5786 5782 5781 5780 5777 5772 5771 5768 5763 5760 5757 5753 5749 5744 5740 5736 5731
5611 5620 5625 5631 5634 5642 5652 5651 5660 5674 5686 5697 5707 5715 5722 5729 5735 5741 5746 5751 5756 5761 5765 5768 5772 5774 5768 5774 5776 5776 5774 5772 5775 5773 5771 5769 5768 5765 5761 5758 5754 5750 5746 5742 5738 5734 5730 5725 5719
5608 5615 5621 5626 5637 5640 5641 5641 5653 5664 5677 5686 5697 5704 5713 5720 5728 5733 5739 5743 5748 5752 5756 5760 5764 5767 5767 5765 5767 5770 5769 5768 5761 5763 5761 5759 5757 5755 5751 5747 5743 5740 5736 5731 5727 5724 5719 5713 5707
5604 5611 5617 5628 5636 5632 5631 5640 5649 5657 5667 5673 5688 5697 5704 5712 5719 5725 5731 5737 5740 5744 5748 5753 5755 5758 5759 5759 5760 5761 5759 5758 5756 5754 5751 5749 5746 5743 5740 5736 5732 5729 5726 5721 5717 5712 5707 5700 5695
5601 5609 5617 5622 5629 5628 5634 5637 5642 5652 5662 5671 5681 5688 5697 5703 5710 5718 5725 5729 5733 5738 5742 5744 5746 5748 5749 5749 5750 5750 5748 5747 5747 5744 5741 5739 5735 5732 5729 5726 5723 5719 5715 5710 5705 5699 5693 5687 5681
5598 5607 5612 5623 5630 5627 5623 5626 5636 5648 5657 5665 5674 5682 5690 5698 5704 5712 5718 5722 5725 5729 5734 5736 5738 5739 5739 5737 5739 5738 5738 5736 5735 5734 5733 5731 5728 5724 5720 5716 5712 5708 5703 5698 5693 5687 5680 5673 5666
5594 5598 5608 5620 5622 5623 5621 5627 5633 5643 5651 5659 5666 5674 5681 5689 5696 5702 5707 5712 5717 5722 5723 5724 5728 5729 5728 5730 5729 5728 5728 5728 5727 5726 5724 5722 5718 5715 5711 5706 5702 5697 5692 5686 5680 5673 5666 5659 5652